EHI
0 0 0 0 0 0 0 0 0 0 0 0 0 0 0 0 0 0 0 0 0 0 0 0 0 0 0 0 0 0 0 0 0 0 0 0 0 0 0 0 0 0 0 0
0 0 0 0 0 0 0 0 0 0 0 0 0 0 0 0 0 0 0 0 0 0 0 0 0 0 0 0 0 0 0 0 0 0 0 0 0 0 0 0 0 0 0 0
0 0 0 0 0 0 0 0 0 0 0 0 0 0 0 0 0 0 0 0 0 0 0 0 0 0 0 0 0 0 0 0 0 0 0 0 0 0 0 0 0 0 0 0
0 0 0 0 0 0 0 0 0 0 0 0 0 0 0 0 0 0 0 0 0 0 0 0 0 0 0 0 0 0 0 0 0 0 0 0 0 0 0 0 0 0 0 0
0 0 0 0 0 0 0 0 0 0 0 0 0 0 0 0 0 0 0 0 0 0 0 0 0 0 0 0 0 0 0 0 0 0 0 0 0 0 0 0 0 0 0 0
0 0 0 0 0 0 0 0 0 0 0 0 0 0 0 0 0 0 0 0 0 0 0 0 0 0 0 0 0 0 0 0 0 0 0 0 0 0 0 0 0 0 0 0
0 0 0 0 0 0 0 0 0 0 0 0 0 0 0 0 0 0 0 0 0 0 0 0 0 0 0 0 0 0 0 0 0 0 0 0 0 0 0 0 0 0 0 0
0 0 0 0 0 0 0 0 0 0 0 0 0 0 0 0 0 0 0 0 0 0 0 0 0 0 0 0 0 0 0 0 0 0 0 0 0 0 0 0 0 0 0 0
0 0 0 0 0 0 0 0 0 0 0 0 0 0 0 0 0 0 0 0 0 0 0 0 0 0 0 0 0 0 0 0 0 0 0 0 0 0 0 0 0 0 0 0
0 0 0 0 0 0 0 0 0 0 0 0 0 0 0 0 0 0 0 0 0 0 0 0 0 0 0 0 0 0 0 0 0 0 0 0 0 0 0 0 0 0 0 0
0 0 0 0 0 0 0 0 0 0 0 0 0 0 0 0 0 0 0 0 0 0 0 0 0 0 0 0 0 0 0 0 0 0 0 0 0 0 0 0 0 0 0 0
0 0 0 0 0 0 0 0 0 0 0 0 0 0 0 0 0 0 0 0 0 0 0 0 0 0 0 0 0 0 0 0 0 0 0 0 0 0 0 0 0 0 0 0
0 0 0 0 0 0 0 0 0 0 0 0 0 0 0 0 0 0 0 0 0 0 0 0 0 0 0 0 0 0 0 0 0 0 0 0 0 0 0 0 0 0 0 0
0 0 0 0 0 0 0 0 0 0 0 0 0 0 0 0 0 0 0 0 0 0 0 0 0 0 0 0 0 0 0 0 0 0 0 0 0 0 0 0 0 0 0 0
0 0 0 0 0 0 0 0 0 0 0 0 0 0 0 0 0 0 0 0 0 0 0 0 0 0 0 0 0 0 0 0 0 0 0 0 0 0 0 0 0 0 0 0
0 0 0 0 0 0 0 0 0 0 0 0 0 0 0 0 0 0 0 0 0 0 0 0 0 0 0 0 0 0 0 0 0 0 0 0 0 0 0 0 0 0 0 0
0 0 0 0 0 0 0 0 0 0 0 0 0 0 0 0 0 0 0 0 0 0 0 0 0 0 0 0 0 0 0 0 0 0 0 0 0 0 0 0 0 0 0 0
0 0 0 0 0 0 0 0 0 0 0 0 0 0 0 0 0 0 0 0 0 0 0 0 0 0 0 0 0 0 0 0 0 0 0 0 0 0 0 0 0 0 0 0
0 0 0 0 0 0 0 0 0 0 0 0 0 0 0 0 0 0 0 0 0 0 0 0 0 0 0 0 0 0 0 0 0 0 0 0 0 0 0 0 0 0 0 0
0 0 0 0 0 0 0 0 0 0 0 0 0 0 0 0 0 0 0 0 0 0 0 0 0 0 0 0 0 0 0 0 0 0 0 0 0 0 0 0 0 0 0 0
0 0 0 0 0 0 0 0 0 0 0 0 0 0 0 0 0 0 0 0 0 0 0 0 0 0 0 0 0 0 0 0 0 0 0 0 0 0 0 0 0 0 0 0
0 0 0 0 0 0 0 0 0 0 0 0 0 0 0 0 0 0 0 0 0 0 0 0 0 0 0 0 0 0 0 0 0 0 0 0 0 0 0 0 0 0 0 0
0 0 0 0 0 0 0 0 0 0 0 0 0 0 0 0 0 0 0 0 0 0 0 0 0 0 0 0 0 0 0 0 0 0 0 0 0 0 0 0 0 0 0 0
0 0 0 0 0 0 0 0 0 0 0 0 0 0 0 0 0 0 0 0 0 0 0 0 0 0 0 0 0 0 0 0 0 0 0 0 0 0 0 0 0 0 0 0
0 0 0 0 0 0 0 0 0 0 0 0 0 0 0 0 0 0 0 0 0 0 0 0 0 0 0 0 0 0 0 0 0 0 0 0 0 0 0 0 0 0 0 0
0 0 0 0 0 0 0 0 0 0 0 0 0 0 0 0 0 0 0 0 0 0 0 0 0 0 0 0 0 0 0 0 0 0 0 0 0 0 0 0 0 0 0 0
Wind_Speed
2 4 11 17 15 10 4 8 13 12 10 8 19 21 17 17 17 25 22 19 20 19 21 18 9 8 9 10 13 15 16 16 16 15 14 12 13 11 10 10 12 12 11 11
2 8 16 3 2 4 5 10 18 16 13 13 21 24 18 22 22 22 23 22 15 16 18 18 5 4 8 12 14 15 16 17 18 15 13 8 8 8 9 7 8 10 11 12
13 11 6 4 3 8 7 10 17 15 8 7 14 16 9 13 11 12 19 19 10 14 19 19 7 6 8 9 12 14 16 17 16 13 9 4 6 4 3 6 8 11 13 14
9 7 4 4 8 12 14 13 12 9 6 7 6 18 6 9 9 11 12 8 10 10 10 12 9 8 9 9 8 9 11 13 15 17 17 17 12 11 12 12 12 12 13 14
7 3 3 6 11 9 9 4 4 3 3 7 1 8 10 2 6 12 9 7 6 7 7 9 10 10 9 4 6 8 10 12 13 15 18 19 14 8 6 7 10 10 10 10
6 2 5 8 7 8 3 1 3 3 2 10 8 10 22 2 4 5 9 10 8 8 11 11 7 6 8 5 1 6 11 12 13 14 15 17 15 10 11 12 12 11 9 9
4 6 5 4 2 2 2 2 3 2 5 10 3 8 16 7 9 8 9 8 6 7 8 11 10 9 9 5 2 2 6 9 13 15 15 15 15 14 16 15 14 14 12 12
6 12 7 6 8 7 8 8 9 8 10 13 5 11 19 9 11 9 5 4 5 7 7 8 9 7 6 4 3 6 7 7 10 13 14 13 12 9 9 11 12 13 12 12
8 14 7 9 6 5 5 9 8 8 13 14 17 18 23 18 12 4 2 4 6 9 8 8 9 8 7 7 6 5 7 8 10 11 12 13 15 14 12 11 12 12 11 10
7 15 7 4 3 4 6 5 4 5 7 11 16 16 18 31 30 10 9 10 11 10 10 12 13 12 11 9 7 9 9 8 5 8 11 10 13 13 12 13 15 14 15 15
2 7 10 3 6 11 5 5 7 8 9 13 22 17 11 20 17 14 16 16 19 21 19 17 16 16 16 15 14 12 9 7 7 7 7 7 8 8 9 10 14 15 14 16
7 6 11 14 7 4 5 8 8 12 16 14 17 12 9 9 20 26 23 21 20 19 18 16 15 15 15 16 17 17 15 11 10 8 8 10 9 9 10 13 14 15 16 17
4 3 7 12 9 2 1 3 5 10 10 13 13 10 6 22 24 20 17 18 19 19 18 17 17 16 16 15 14 13 12 12 12 13 11 12 11 12 17 19 17 16 16 17
2 8 14 21 17 10 10 11 12 13 11 15 15 16 8 21 18 16 13 15 17 19 18 17 17 15 15 14 14 13 13 14 14 12 11 12 13 16 18 18 16 17 18 19
2 11 15 16 13 9 11 15 19 17 17 13 16 12 7 11 14 14 14 15 15 16 16 16 16 15 16 15 15 15 14 14 15 15 17 16 13 11 13 15 15 15 18 20
2 3 6 15 15 12 17 20 19 21 18 14 12 4 2 4 7 10 9 10 14 15 14 13 15 14 16 18 17 16 15 15 16 15 16 18 17 12 11 12 12 13 16 17
2 4 9 18 13 11 18 17 18 20 11 1 3 3 2 5 8 12 9 8 11 13 15 13 14 13 13 15 16 16 15 13 13 13 14 15 18 17 13 9 9 12 15 16
9 10 7 11 11 19 12 4 7 9 9 7 5 5 8 7 5 6 1 5 9 11 12 12 12 13 13 15 15 14 15 14 12 12 13 15 17 18 16 9 7 7 9 13
16 13 7 6 10 14 4 2 3 3 5 6 5 8 7 7 6 3 3 5 8 11 9 10 11 12 13 15 15 14 16 17 17 15 15 15 16 18 15 10 7 4 6 9
2 11 9 5 6 8 4 2 2 3 5 7 8 8 8 6 6 9 6 5 9 10 9 10 10 9 10 13 12 14 15 16 16 16 17 16 13 14 15 11 5 3 5 7
1 1 7 7 6 9 6 6 0 2 5 5 6 9 9 8 9 11 9 6 7 9 11 12 11 10 11 10 10 14 15 16 16 16 18 18 12 12 12 10 3 2 3 3
4 4 4 2 4 9 5 3 3 6 5 5 7 11 11 9 10 10 11 11 9 12 14 13 12 14 14 11 10 14 17 16 15 17 18 17 15 12 8 8 5 3 5 5
7 8 5 9 11 8 8 11 10 4 7 10 11 11 8 8 12 11 11 13 13 14 14 12 11 16 16 12 10 14 16 14 17 19 20 18 17 13 9 9 8 6 6 5
8 5 12 18 21 17 16 17 10 8 13 12 8 6 5 9 11 11 12 14 15 16 15 13 13 16 19 16 14 15 16 15 16 20 20 18 18 16 12 9 9 9 9 9
11 9 12 16 20 17 18 15 14 14 10 3 2 1 3 6 11 12 14 16 16 17 17 14 14 17 21 21 19 17 16 16 18 19 19 17 16 16 14 13 12 11 12 13
15 18 14 18 20 16 16 13 2 1 0 1 3 5 6 8 12 14 15 16 16 18 19 20 20 21 22 22 22 18 16 17 19 19 18 15 14 14 13 12 12 19 20 22
Wind_Direction
144 151 206 215 207 234 219 239 257 263 267 275 272 271 270 269 271 277 276 269 268 270 275 275 255 216 203 195 193 192 189 184 173 175 174 179 192 186 188 191 188 183 178 174
72 234 235 237 184 237 243 264 272 273 262 268 275 274 272 262 254 256 270 276 281 290 289 286 279 230 207 203 195 188 188 181 182 184 184 185 179 185 188 183 183 180 175 174
211 240 222 187 177 237 234 240 261 273 301 276 292 283 242 269 263 258 261 270 282 267 281 298 324 250 236 222 204 195 188 183 181 176 164 118 103 95 134 172 185 185 182 180
238 251 176 168 218 220 252 233 250 272 301 293 342 300 184 235 272 276 271 277 273 284 296 301 302 270 237 229 206 193 178 178 180 173 174 177 181 185 193 189 190 188 187 181
242 198 168 197 223 189 236 189 213 208 213 280 218 271 277 256 261 280 296 293 314 320 320 307 294 288 278 239 181 171 163 167 180 185 185 184 192 182 156 162 170 175 181 181
245 219 197 215 213 190 219 103 66 50 60 273 203 224 284 207 255 305 315 316 336 340 331 319 313 315 324 352 64 149 156 161 172 188 197 197 195 168 157 164 168 168 174 180
243 220 216 187 205 230 155 124 316 306 187 240 172 202 263 275 273 272 276 279 310 335 324 328 341 0 354 355 50 135 156 166 171 185 199 204 201 186 180 175 176 174 178 188
238 264 200 185 189 197 183 169 199 231 257 280 276 253 267 258 265 259 252 281 331 331 345 346 343 356 338 316 195 177 189 188 182 188 197 198 201 198 194 182 177 179 186 188
231 256 198 193 189 174 205 196 219 251 265 266 266 270 288 289 285 290 334 336 342 327 336 341 339 348 349 325 283 227 207 206 195 198 201 203 198 190 189 185 182 183 187 178
265 273 250 205 168 217 212 233 219 216 236 251 245 255 275 290 289 311 337 346 337 325 340 359 6 3 10 353 341 332 322 305 271 225 215 211 217 209 190 184 196 193 185 175
249 268 285 297 221 219 218 242 246 250 239 251 265 259 261 274 311 2 13 10 20 24 22 17 16 16 14 10 10 1 339 320 305 290 275 259 245 228 207 201 203 200 192 181
230 212 244 258 249 218 233 250 250 258 261 257 269 268 285 8 28 34 31 20 11 7 4 3 4 7 9 9 12 10 353 341 327 300 263 244 236 226 219 214 212 202 195 188
297 247 275 292 296 62 251 277 289 285 278 262 263 262 297 39 36 28 20 10 4 360 359 358 357 1 3 2 4 4 355 357 344 322 292 265 245 228 226 223 215 207 201 196
321 259 264 267 266 279 279 285 286 269 263 278 272 286 341 35 7 1 2 10 6 356 352 352 353 352 352 351 352 353 350 353 344 330 315 284 257 239 235 233 222 209 201 198
1 275 269 269 280 295 289 291 289 273 267 273 290 305 50 9 353 351 345 350 352 349 343 346 346 341 340 342 344 345 345 344 339 339 342 332 305 274 253 240 228 210 204 199
94 293 318 296 294 291 283 274 268 268 269 265 264 239 84 333 325 326 320 333 337 334 330 337 335 335 334 334 336 336 339 340 338 343 343 335 325 309 274 250 232 212 207 203
260 265 270 272 281 299 273 255 251 256 268 210 236 162 233 281 314 326 322 322 332 323 316 322 320 327 326 324 326 327 327 327 330 333 331 334 330 323 307 274 239 218 209 204
242 253 254 274 286 266 255 64 72 81 88 96 116 202 220 240 283 297 329 325 318 310 304 311 314 319 316 316 318 318 321 320 322 324 325 331 332 323 310 288 250 234 215 207
219 226 232 229 229 259 281 93 94 130 185 183 219 248 245 258 273 246 329 305 297 296 295 306 307 306 313 312 314 321 323 324 323 324 324 329 328 316 301 273 257 231 218 218
203 212 226 218 235 245 227 246 216 133 259 224 221 238 230 248 288 300 304 296 293 291 294 297 292 286 290 296 309 318 318 318 319 324 322 313 305 294 283 266 246 232 221 223
31 97 227 225 241 265 246 257 69 194 272 228 226 238 225 215 238 282 299 291 281 287 293 294 294 291 290 294 310 306 306 308 316 319 310 300 290 275 272 271 253 213 214 186
195 209 222 188 249 267 247 279 223 252 261 240 256 246 225 236 258 269 282 290 288 291 294 297 299 297 297 301 303 296 295 304 308 304 299 299 297 282 258 253 245 199 192 186
219 210 198 216 229 248 242 252 267 213 231 251 244 238 229 255 268 269 276 285 290 289 288 289 286 285 285 286 284 283 293 307 306 304 303 305 302 290 259 239 232 217 200 195
241 229 252 266 265 261 269 274 276 268 267 268 242 235 234 252 265 278 284 286 289 289 286 289 287 281 283 287 290 291 304 310 305 301 300 300 297 292 271 239 228 223 212 204
239 227 238 250 258 268 266 264 266 268 271 268 273 246 266 273 277 280 281 284 287 290 293 292 286 286 288 296 297 302 304 304 297 291 289 289 288 282 271 243 225 225 223 212
234 236 234 248 258 263 271 278 286 236 223 14 324 304 280 270 277 282 283 288 293 294 296 298 296 295 296 299 297 299 298 294 289 286 285 283 281 281 275 261 245 236 236 233